Miscellaneous Local Product
Issued by NWS Hastings, NE

Home | Current Version | Previous Version | Text Only | Print | Product List | Glossary On
Versions: 1 2 3 4 5 6 7 8 9 10 11 12 13 14 15 16 17 18 19 20 21 22 23 24 25 26 27 28 29 30 31 32 33 34 35 36 37 38 39 40 41 42 43 44 45 46 47 48 49 50
000
AXUS43 KGID 260802
MISGRI

GID CWA HOURLY WEATHER ROUNDUP
NATIONAL WEATHER SERVICE HASTINGS NE
200 AM CST MON JAN 26 2015

NOTE: "FAIR" INDICATES FEW OR NO CLOUDS BELOW 12,000 FEET WITH NO
SIGNIFICANT WEATHER AND/OR OBSTRUCTIONS TO VISIBILITY.

...SOUTH CENTRAL NEBRASKA...

CITY           SKY/WX    TMP DP  RH WIND       PRES   REMARKS
GRAND ISLAND   PTCLDY    32  27  81 S10       30.00F WCI  24
HASTINGS       PTCLDY    32  26  78 S8        30.01F WCI  25
KEARNEY        CLEAR     34  27  75 SW10      29.99F WCI  26
ORD            CLEAR     30  25  81 CALM      29.95F
YORK           CLOUDY    32  28  86 SW7       30.04S WCI  26
AURORA         MOCLDY    33  28  83 SW8       30.03S WCI  26
LEXINGTON      CLEAR     34  25  71 W6        30.00S WCI  28
HOLDREGE       CLEAR     34  25  70 S5        30.01S WCI  30
HEBRON         CLOUDY    32  29  87 SW7       30.07F WCI  26

...NEBRASKA PANHANDLE...

CITY           SKY/WX    TMP DP  RH WIND       PRES   REMARKS
CHADRON        MOCLDY    43  30  60 NW5       30.05R
ALLIANCE       MOCLDY    36  30  79 W13       30.06S WCI  27
SCOTTSBLUFF    CLOUDY    39  32  76 NW15      30.11F WCI  31
SIDNEY         MOCLDY    43  30  60 W16       30.12S

...WESTERN AND NORTH CENTRAL NEBRASKA...

CITY           SKY/WX    TMP DP  RH WIND       PRES   REMARKS
VALENTINE      CLEAR     30  28  92 SW7       29.94S WCI  23
AINSWORTH      CLEAR     37  32  81 W8        29.93F WCI  31
ONEILL         MOCLDY    34  31  88 SW9       29.92F WCI  27
BROKEN BOW     CLEAR     36  27  69 CALM      29.96F
IMPERIAL       CLEAR     41  30  65 NW14      30.06S
NORTH PLATTE   CLEAR     32  27  81 NW10      30.01S WCI  24
MCCOOK         PTCLDY    35  29  78 W13       30.03F WCI  26

...EASTERN NEBRASKA...

CITY           SKY/WX    TMP DP  RH WIND       PRES   REMARKS
NORFOLK        MOCLDY    35  29  78 S13       29.94F WCI  26
SO SIOUX CITY  PTCLDY    32  29  88 S9        29.96F WCI  24
TEKAMAH        PTCLDY    30  27  88 S8        30.00F WCI  22
COLUMBUS       PTCLDY    34  27  75 SW7       30.00F WCI  28
ALBION         MOCLDY    35  28  78 S6        29.97F WCI  30
OMAHA EPPLEY   CLEAR     27  25  92 SE9       30.02F WCI  18
OFFUTT AFB     CLEAR     25  24  96 S3        30.02F
MILLARD        CLEAR     28  27  94 CALM      30.03F FOG
LINCOLN        CLOUDY    33  29  85 SW6       30.03F WCI  28
NEBRASKA CITY  CLEAR     25  24  96 S7        30.04F WCI  18
BEATRICE       CLOUDY    29  27  92 SW3       30.07S
FALLS CITY     CLEAR     28  25  88 SW6       30.07F WCI  22

...NORTHERN KANSAS...

CITY           SKY/WX    TMP DP  RH WIND       PRES   REMARKS
GOODLAND       CLEAR     39  30  70 W16       30.11F WCI  30
HILL CITY      CLEAR     35  25  66 W9        30.05F WCI  28
NORTON         SUNNY     34  25  69 SW12      30.02F WCI  25
PHILLIPSBURG   CLEAR     36  27  69 CALM      30.05S
SMITH CENTER   CLEAR     27  21  80 SE5       30.06F WCI  21
BELOIT         CLOUDY    32  27  80 SE6       30.08F WCI  26
HAYS           CLEAR     30  18  59 SW6       30.08F WCI  24
RUSSELL        PTCLDY    30  25  81 SW14      30.06F WCI  19
CONCORDIA      PTCLDY    32  29  88 SW8       30.09F WCI  25
SALINA         CLOUDY    29  25  85 SE3       30.12S
TOPEKA         CLEAR     26  24  92 CALM      30.11S



USA.gov is the U.S. government's official web portal to all federal, state and local government web resources and services.